Simultaneous Nadir Overpasses (SNOs) Predictions

Prediction of SNOs between AQUA and NOAA-19 Satellite Orbit:

Table of predicted SNOs for the next 14.0 days since TLE Epoch: 6/21/2025
Index Date (AQUA) Time (AQUA) Lat,Lon (AQUA) SZA (AQUA ) Date (NOAA-19) Time (NOAA-19) Lat,Lon (NOAA-19) SZA (NOAA-19 ) Distance(km) Time Diff (sec)
1 06/23/2025 02:22:39 75.77, 150.07 52.33 06/23/2025 02:22:20 75.76, 150.12 52.32 1.85 19
2 06/23/2025 03:12:06 -76.23, -43.72 127.25 06/23/2025 03:13:12 -76.24, -40.91 127.15 74.37 66
3 06/25/2025 04:29:55 -75.74, -61.60 127.66 06/25/2025 04:29:38 -75.76, -61.64 127.64 3.07 17
4 06/25/2025 05:19:16 75.86, 105.69 52.46 06/25/2025 05:20:28 75.94, 106.26 52.57 17.97 72
5 06/27/2025 06:37:13 75.78, 86.51 52.45 06/27/2025 06:36:48 75.75, 86.55 52.42 3.53 25
6 06/27/2025 07:26:34 -75.94,-106.32 127.40 06/27/2025 07:27:45 -75.97,-105.41 127.33 24.81 71
7 06/29/2025 08:44:29 -75.77,-125.24 127.45 06/29/2025 08:44:05 -75.75,-125.20 127.47 2.52 24
8 06/29/2025 09:33:48 75.81, 42.33 52.58 06/29/2025 09:34:58 75.83, 42.35 52.62 3.22 70
9 07/01/2025 10:51:45 75.75, 23.06 52.66 07/01/2025 10:51:15 75.76, 23.09 52.67 1.49 30
10 07/01/2025 11:41:04 -75.82,-169.46 127.28 07/01/2025 11:42:15 -75.82,-169.49 127.27 0.71 71
11 07/03/2025 12:59:01 -75.78, 171.22 127.15 07/03/2025 12:58:31 -75.77, 171.32 127.17 3.17 30



Historial Predications of SNOs between AQUA and NOAA-19
